Weather History for KBFL - February, 2013

Change the Weather History Date:

Friday, February 15, 2013

  Actual Average Record
Temperature  
Mean Temperature 59 °F 53 °F  
Max Temperature 76 °F 63 °F 84 °F (1977)
Min Temperature 41 °F 42 °F 21 °F (1903)
Degree Days  
Heating Degree Days 6    
Month to date heating degree days 197  
Since 1 July heating degree days 1443  
Cooling Degree Days 0    
Month to date cooling degree days 0  
Year to date cooling degree days 0  
Growing Degree Days 8 (Base 50)    
Moisture  
Dew Point 36 °F    
Average Humidity 46    
Maximum Humidity 71    
Minimum Humidity 21    
Precipitation  
Precipitation 0.00 in 0.05 in 1.22 in (1945)
Month to date precipitation 0.08 0.66  
Year to date precipitation 0.91 1.82  
Since 1 July precipitation 1.70  
Snow  
Snow 0.00 in - - ()
Month to date snowfall 0.0  
Since 1 July snowfall 0.0  
Snow Depth 0.00 in    
Sea Level Pressure  
Sea Level Pressure 30.24 in    
Wind  
Wind Speed 5 mph (NNE)    
Max Wind Speed 15 mph    
Max Gust Speed 18 mph    
Visibility 8 miles    
Events      
T = Trace of Precipitation, MM = Missing Value Source: NWS Daily Summary

Daily Weather History Graph

Daily Weather History Graph

Search for Another Location

Airport or City:

Trip Planner

Search our weather history database for the weather conditions in past years. The results will help you decide how hot, cold, wet, or windy it might be!

Date:

Astronomy

Feb. 15, 2013 Rise Set
Actual Time 6:42 AM PST 5:38 PM PST
Civil Twilight 6:16 AM PST 6:04 PM PST
Nautical Twilight 5:46 AM PST 6:34 PM PST
Astronomical Twilight 5:16 AM PST 7:04 PM PST
Moon 9:35 AM PST (2/15) 11:29 PM PST (2/15)
Length of Visible Light 11h 48m
Length of Day
10h 56m
Waxing Crescent, 31% of the Moon is Illuminated
Feb 15
Waxing Crescent
Feb 17
First Quarter
Feb 25
Full
Mar 4
Last Quarter
Mar 11
New

Hourly Weather History & Observations

Time (PST) Temp. Windchill Dew Point Humidity Pressure Visibility Wind Dir Wind Speed Gust Speed Precip Events Conditions
12:54 AM 44.1 °F 42.5 °F 36.0 °F 73% 30.26 in 6.0 mi SSE 3.5 mph - N/A   Haze
1:54 AM 46.4 °F 45.2 °F 37.4 °F 71% 30.26 in 6.0 mi East 3.5 mph - N/A   Haze
2:54 AM 46.0 °F - 36.0 °F 68% 30.24 in 6.0 mi Calm Calm - N/A   Haze
3:54 AM 45.0 °F 42.6 °F 35.1 °F 68% 30.22 in 7.0 mi ESE 4.6 mph - N/A   Clear
4:54 AM 48.0 °F - 36.0 °F 63% 30.23 in 8.0 mi East 4.6 mph - N/A   Clear
5:54 AM 42.1 °F - 34.0 °F 73% 30.24 in 7.0 mi Calm Calm - N/A   Clear
6:54 AM 43.0 °F - 34.0 °F 71% 30.25 in 5.0 mi Calm Calm - N/A   Haze
7:54 AM 50.0 °F - 37.9 °F 63% 30.26 in 6.0 mi Calm Calm - N/A   Haze
8:54 AM 57.0 °F - 37.9 °F 49% 30.27 in 6.0 mi Calm Calm - N/A   Haze
9:54 AM 60.1 °F - 39.9 °F 47% 30.26 in 6.0 mi West 4.6 mph - N/A   Haze
10:54 AM 64.0 °F - 39.9 °F 41% 30.27 in 6.0 mi West 6.9 mph - N/A   Haze
11:54 AM 69.1 °F - 37.0 °F 31% 30.25 in 7.0 mi West 5.8 mph - N/A   Clear
12:54 PM 71.1 °F - 32.0 °F 24% 30.22 in 10.0 mi West 4.6 mph - N/A   Clear
1:54 PM 73.9 °F - 32.0 °F 21% 30.21 in 10.0 mi Variable 5.8 mph - N/A   Clear
2:54 PM 75.0 °F - 34.0 °F 22% 30.20 in 10.0 mi NNE 10.4 mph - N/A   Clear
3:54 PM 73.9 °F - 35.1 °F 24% 30.20 in 10.0 mi North 11.5 mph - N/A   Clear
4:54 PM 72.0 °F - 34.0 °F 25% 30.19 in 10.0 mi North 11.5 mph - N/A   Clear
5:54 PM 63.0 °F - 35.1 °F 35% 30.21 in 10.0 mi NW 9.2 mph - N/A   Clear
6:54 PM 63.0 °F - 37.0 °F 38% 30.22 in 10.0 mi North 9.2 mph - N/A   Clear
7:54 PM 63.0 °F - 37.0 °F 38% 30.24 in 10.0 mi NE 8.1 mph - N/A   Clear
8:54 PM 57.9 °F - 36.0 °F 44% 30.25 in 10.0 mi Calm Calm - N/A   Clear
9:54 PM 55.9 °F - 37.9 °F 51% 30.25 in 10.0 mi SE 5.8 mph - N/A   Clear
10:54 PM 48.0 °F - 35.1 °F 61% 30.24 in 9.0 mi Calm Calm - N/A   Clear
11:54 PM 48.9 °F - 36.0 °F 61% 30.24 in 9.0 mi Calm Calm - N/A   Clear